Telluride, CO

5:10 PM MST on February 08, 2016 (GMT -0700)
Telluride Regional

Weather History for KTEX - March, 2014

Change the Weather History Date:

Monday, March 10, 2014

  Actual Average Record
Temperature  
Mean Temperature 40 °F -  
Max Temperature 53 °F 37 °F 53 °F (2014)
Min Temperature 28 °F 17 °F 5 °F (1998)
Degree Days  
Heating Degree Days 24    
Moisture  
Dew Point 0 °F    
Average Humidity 22    
Maximum Humidity 47    
Minimum Humidity 6    
Precipitation  
Precipitation 0.00 in - - ()
Sea Level Pressure  
Sea Level Pressure 30.18 in    
Wind  
Wind Speed 7 mph (SSE)    
Max Wind Speed 14 mph    
Max Gust Speed 22 mph    
Visibility 10 miles    
Events      
Averages and records for this station are not official NWS values.
T = Trace of Precipitation, MM = Missing Value Source: NWS Daily Summary

Daily Weather History Graph

Daily Weather History Graph

Search for Another Location

Airport or City:

Trip Planner

Search our weather history database for the weather conditions in past years. The results will help you decide how hot, cold, wet, or windy it might be!

Date:

Astronomy

Mar. 10, 2014 Rise Set
Actual Time 7:30 AM MDT 7:14 PM MDT
Civil Twilight 7:03 AM MDT 7:40 PM MDT
Nautical Twilight 6:33 AM MDT 8:10 PM MDT
Astronomical Twilight 6:02 AM MDT 8:41 PM MDT
Moon 2:04 PM MDT (3/10) 3:40 AM MDT (3/10)
Length of Visible Light 12h 36m
Length of Day
11h 43m
Waxing Gibbous, 70% of the Moon is Illuminated
Mar 10
Waxing Gibbous
Mar 16
Full
Mar 23
Last Quarter
Mar 30
New
Apr 7
First Quarter

Hourly Weather History & Observations

Time (MDT) Temp. Windchill Dew Point Humidity Pressure Visibility Wind Dir Wind Speed Gust Speed Precip Events Conditions
12:18 AM 32.0 °F 25.6 °F 12.2 °F 44% 30.35 in 10.0 mi ESE 6.9 mph - N/A   Clear
12:58 AM 30.2 °F 22.6 °F 12.2 °F 47% 30.34 in 10.0 mi ESE 8.1 mph - N/A   Clear
1:19 AM 30.2 °F 22.6 °F 12.2 °F 47% 30.33 in 10.0 mi ESE 8.1 mph - N/A   Clear
1:38 AM 32.0 °F 26.4 °F 10.4 °F 41% 30.33 in 10.0 mi ESE 5.8 mph - N/A   Clear
1:58 AM 30.2 °F 24.3 °F 10.4 °F 44% 30.33 in 10.0 mi SE 5.8 mph - N/A   Clear
2:20 AM 30.2 °F 23.4 °F 8.6 °F 40% 30.33 in 10.0 mi SE 6.9 mph - N/A   Clear
2:38 AM 28.4 °F 22.2 °F 10.4 °F 47% 30.31 in 10.0 mi East 5.8 mph - N/A   Clear
3:00 AM 32.0 °F 26.4 °F 8.6 °F 38% 30.31 in 10.0 mi ESE 5.8 mph - N/A   Clear
3:19 AM 32.0 °F 25.6 °F 8.6 °F 38% 30.30 in 10.0 mi ESE 6.9 mph - N/A   Clear
3:38 AM 30.2 °F 23.4 °F 8.6 °F 40% 30.29 in 10.0 mi SE 6.9 mph - N/A   Clear
4:21 AM 30.2 °F 25.4 °F 6.8 °F 37% 30.27 in 10.0 mi East 4.6 mph - N/A   Scattered Clouds
4:38 AM 30.2 °F 26.7 °F 5.0 °F 34% 30.27 in 10.0 mi ESE 3.5 mph - N/A   Scattered Clouds
4:58 AM 30.2 °F 23.4 °F 3.2 °F 32% 30.27 in 10.0 mi SE 6.9 mph - N/A   Clear
5:18 AM 32.0 °F 25.6 °F 3.2 °F 30% 30.27 in 10.0 mi SE 6.9 mph - N/A   Clear
5:38 AM 30.2 °F 23.4 °F 3.2 °F 32% 30.27 in 10.0 mi ESE 6.9 mph - N/A   Clear
5:58 AM 28.4 °F 22.2 °F 3.2 °F 34% 30.27 in 10.0 mi ESE 5.8 mph - N/A   Clear
6:18 AM 28.4 °F 22.2 °F 3.2 °F 34% 30.27 in 10.0 mi East 5.8 mph - N/A   Clear
6:39 AM 30.2 °F 24.3 °F 1.4 °F 29% 30.27 in 10.0 mi ESE 5.8 mph - N/A   Clear
6:58 AM 28.4 °F 20.4 °F 3.2 °F 34% 30.27 in 10.0 mi SE 8.1 mph - N/A   Clear
7:38 AM 30.2 °F 21.9 °F 3.2 °F 32% 30.26 in 10.0 mi ESE 9.2 mph - N/A   Clear
7:58 AM 30.2 °F 22.6 °F -0.4 °F 27% 30.26 in 10.0 mi SE 8.1 mph - N/A   Clear
8:18 AM 32.0 °F 24.8 °F -0.4 °F 25% 30.25 in 10.0 mi SE 8.1 mph - N/A   Clear
8:38 AM 30.2 °F 21.9 °F 1.4 °F 29% 30.25 in 10.0 mi SE 9.2 mph - N/A   Clear
8:58 AM 32.0 °F 24.8 °F 1.4 °F 27% 30.25 in 10.0 mi ESE 8.1 mph - N/A   Clear
9:18 AM 35.6 °F 31.7 °F -0.4 °F 22% 30.25 in 10.0 mi East 4.6 mph - N/A   Scattered Clouds
9:58 AM 37.4 °F 32.8 °F 5.0 °F 26% 30.24 in 10.0 mi ESE 5.8 mph - N/A   Scattered Clouds
10:18 AM 41.0 °F 38.0 °F 1.4 °F 19% 30.23 in 10.0 mi SE 4.6 mph - N/A   Clear
10:38 AM 42.8 °F 41.1 °F 6.8 °F 23% 30.23 in 10.0 mi East 3.5 mph - N/A   Clear
11:18 AM 46.4 °F - 10.4 °F 23% 30.22 in 10.0 mi Calm Calm - N/A   Clear
11:38 AM 48.2 °F - -0.4 °F 13% 30.22 in 10.0 mi Calm Calm - N/A   Clear
12:18 PM 51.8 °F - -5.8 °F 9% 30.20 in 10.0 mi West 9.2 mph - N/A   Clear
12:38 PM 51.8 °F - -9.4 °F 8% 30.19 in 10.0 mi WSW 6.9 mph - N/A   Scattered Clouds
12:58 PM 51.8 °F - -5.8 °F 9% 30.18 in 10.0 mi West 3.5 mph - N/A   Scattered Clouds
1:39 PM 53.6 °F - -9.4 °F 7% 30.16 in 10.0 mi West 11.5 mph 19.6 mph N/A   Clear
1:58 PM 53.6 °F - -7.6 °F 8% 30.16 in 10.0 mi West 13.8 mph 21.9 mph N/A   Scattered Clouds
2:17 PM 53.6 °F - -5.8 °F 9% 30.14 in 10.0 mi West 6.9 mph - N/A   Mostly Cloudy
2:38 PM 53.6 °F - -4.0 °F 9% 30.13 in 10.0 mi West 6.9 mph - N/A   Mostly Cloudy
2:58 PM 53.6 °F - -7.6 °F 8% 30.12 in 10.0 mi West 10.4 mph - N/A   Mostly Cloudy
3:17 PM 53.6 °F - -7.6 °F 8% 30.12 in 10.0 mi West 9.2 mph - N/A   Scattered Clouds
3:37 PM 51.8 °F - -7.6 °F 8% 30.10 in 10.0 mi West 11.5 mph - N/A   Clear
3:57 PM 53.6 °F - -7.6 °F 8% 30.10 in 10.0 mi SW 9.2 mph - N/A   Clear
4:38 PM 53.6 °F - -7.6 °F 8% 30.08 in 10.0 mi SSW 9.2 mph 16.1 mph N/A   Clear
4:58 PM 53.6 °F - -9.4 °F 7% 30.07 in 10.0 mi WSW 8.1 mph - N/A   Scattered Clouds
5:18 PM 53.6 °F - -11.2 °F 7% 30.06 in 10.0 mi WSW 13.8 mph 19.6 mph N/A   Clear
5:38 PM 51.8 °F - -13.0 °F 7% 30.06 in 10.0 mi SW 8.1 mph 21.9 mph N/A   Clear
5:58 PM 51.8 °F - -13.0 °F 7% 30.05 in 10.0 mi SSW 9.2 mph - N/A   Clear
6:18 PM 51.8 °F - -14.8 °F 6% 30.05 in 10.0 mi SW 5.8 mph - N/A   Clear
6:58 PM 50.0 °F - -14.8 °F 6% 30.04 in 10.0 mi SSW 8.1 mph 20.7 mph N/A   Clear
7:18 PM 48.2 °F - -13.0 °F 7% 30.03 in 10.0 mi South 4.6 mph 18.4 mph N/A   Clear
7:38 PM 48.2 °F - -9.4 °F 9% 30.03 in 10.0 mi SSW 4.6 mph - N/A   Clear
8:18 PM 46.4 °F 43.5 °F -4.0 °F 12% 30.04 in 10.0 mi WNW 5.8 mph - N/A   Overcast
8:38 PM 46.4 °F 42.9 °F -2.2 °F 13% 30.05 in 10.0 mi NW 6.9 mph - N/A   Overcast
8:58 PM 44.6 °F 41.4 °F -0.4 °F 15% 30.05 in 10.0 mi WNW 5.8 mph - N/A   Overcast
9:18 PM 46.4 °F 42.4 °F 1.4 °F 16% 30.05 in 10.0 mi SW 8.1 mph - N/A   Overcast
9:40 PM 44.6 °F 42.2 °F 3.2 °F 18% 30.04 in 10.0 mi WSW 4.6 mph - N/A   Mostly Cloudy
9:59 PM 42.8 °F - 3.2 °F 19% 30.03 in 10.0 mi Calm Calm - N/A   Overcast
10:38 PM 42.8 °F 40.1 °F 8.6 °F 25% 30.01 in 10.0 mi ESE 4.6 mph - N/A   Overcast
11:39 PM 42.8 °F 38.0 °F 6.8 °F 23% 29.98 in 10.0 mi South 8.1 mph 17.3 mph N/A   Overcast